| time (UTC) | temp F | wind direction | speed MPH | gust MPH | rain 1hr in | rain 24hr in | rain mn in | humidity % | barometer mb |
| 20260505095358 | 59 | 48 | 1.0 | 2.0 | 0.11 | 1.17 | 1.18 | 92 | 1012.3 |
| 20260505094458 | 60 | 139 | 0.0 | 2.0 | 0.13 | 1.15 | 1.15 | 92 | 1012.2 |
| 20260505093558 | 60 | 303 | 0.0 | 2.0 | 0.11 | 1.11 | 1.11 | 92 | 1012.3 |
| 20260505092658 | 60 | 226 | 0.0 | 2.0 | 0.09 | 1.10 | 1.11 | 92 | 1012.3 |
| 20260505085958 | 59 | 106 | 0.0 | 2.0 | 0.06 | 1.06 | 1.07 | 92 | 1012.0 |
| 20260505085058 | 59 | 172 | 0.0 | 2.0 | 0.05 | 1.05 | 1.05 | 92 | 1012.1 |
| 20260505084158 | 59 | 161 | 2.0 | 2.0 | 0.05 | 1.02 | 1.02 | 92 | 1012.0 |
| 20260505083258 | 58 | 107 | 0.0 | 2.0 | 0.14 | 1.00 | 1.00 | 92 | 1011.8 |
| 20260505081458 | 58 | 3 | 0.0 | 4.0 | 0.14 | 1.00 | 1.00 | 91 | 1011.8 |
| 20260505080558 | 58 | 359 | 2.0 | 4.0 | 0.14 | 1.00 | 1.00 | 92 | 1011.8 |
| 20260505072958 | 58 | 98 | 2.0 | 7.0 | 0.00 | 0.86 | 0.86 | 92 | 1012.0 |
| 20260505072058 | 57 | 169 | 2.0 | 6.0 | 0.00 | 0.86 | 0.86 | 92 | 1011.9 |
| 20260505071158 | 57 | 117 | 1.0 | 4.0 | 0.00 | 0.86 | 0.86 | 92 | 1011.6 |
| 20260505070258 | 57 | 89 | 0.0 | 2.0 | 0.00 | 0.86 | 0.86 | 92 | 1012.0 |
| 20260505065358 | 57 | 155 | 1.0 | 2.0 | 0.00 | 0.86 | 0.86 | 92 | 1011.8 |
| 20260505064458 | 57 | 66 | 1.0 | 2.0 | 0.00 | 0.86 | 0.86 | 92 | 1012.3 |
| 20260505063558 | 57 | 1 | 0.0 | 2.0 | 0.01 | 0.86 | 0.86 | 92 | 1012.6 |
| 20260505062658 | 57 | 1 | 0.0 | 2.0 | 0.04 | 0.86 | 0.86 | 92 | 1012.5 |
| 20260505061758 | 56 | 1 | 0.0 | 2.0 | 0.07 | 0.86 | 0.86 | 92 | 1012.4 |
| 20260505060858 | 56 | 353 | 0.0 | 4.0 | 0.11 | 0.86 | 0.86 | 92 | 1012.6 |
| 20260505055058 | 56 | 158 | 0.0 | 2.0 | 0.15 | 0.86 | 0.86 | 92 | 1012.5 |
| 20260505054158 | 56 | 166 | 0.0 | 2.0 | 0.21 | 0.86 | 0.86 | 92 | 1012.5 |
| 20260505053258 | 56 | 181 | 0.0 | 2.0 | 0.30 | 0.85 | 0.85 | 92 | 1012.6 |
| 20260505052358 | 56 | 195 | 0.0 | 2.0 | 0.39 | 0.80 | 0.81 | 92 | 1012.6 |
| 20260505050558 | 56 | 181 | 0.0 | 4.0 | 0.45 | 0.74 | 0.74 | 92 | 1012.5 |
| 20260505041158 | 56 | 356 | 0.0 | 2.0 | 0.05 | 0.32 | 0.32 | 91 | 1012.4 |
| 20260505040258 | 56 | 337 | 0.0 | 2.0 | 0.01 | 0.28 | 0.28 | 91 | 1012.4 |
| 20260505034458 | 56 | 340 | 1.0 | 4.0 | 0.05 | 0.28 | 0.28 | 91 | 1012.5 |
| 20260505033558 | 56 | 339 | 1.0 | 4.0 | 0.05 | 0.28 | 0.28 | 91 | 1012.6 |
| 20260505032659 | 56 | 334 | 1.0 | 4.0 | 0.06 | 0.28 | 0.28 | 91 | 1012.9 |
| 20260505031758 | 56 | 337 | 0.0 | 2.0 | 0.06 | 0.27 | 0.27 | 91 | 1012.8 |
| 20260505030858 | 56 | 338 | 0.0 | 4.0 | 0.06 | 0.27 | 0.27 | 91 | 1013.0 |
| 20260505025958 | 56 | 341 | 2.0 | 6.0 | 0.07 | 0.27 | 0.27 | 91 | 1013.2 |
| 20260505025058 | 56 | 298 | 2.0 | 4.0 | 0.07 | 0.25 | 0.26 | 91 | 1012.9 |
| 20260505023258 | 57 | 71 | 0.0 | 2.0 | 0.09 | 0.22 | 0.22 | 91 | 1013.4 |
| 20260505022358 | 57 | 1 | 0.0 | 2.0 | 0.12 | 0.22 | 0.22 | 91 | 1013.8 |
| 20260505021458 | 57 | 1 | 0.0 | 2.0 | 0.13 | 0.21 | 0.21 | 90 | 1013.8 |
| 20260505020558 | 57 | 1 | 0.0 | 2.0 | 0.13 | 0.21 | 0.21 | 90 | 1013.7 |
| 20260505015658 | 57 | 1 | 0.0 | 2.0 | 0.14 | 0.19 | 0.19 | 90 | 1013.7 |
| 20260505014758 | 57 | 1 | 1.0 | 2.0 | 0.13 | 0.15 | 0.17 | 90 | 1013.8 |
| 20260505013858 | 57 | 1 | 0.0 | 2.0 | 0.13 | 0.14 | 0.14 | 89 | 1013.8 |
| 20260505012958 | 57 | 1 | 0.0 | 2.0 | 0.13 | 0.13 | 0.13 | 89 | 1014.1 |
| 20260505012058 | 58 | 0 | 0.0 | 0.0 | 0.09 | 0.09 | 0.09 | 88 | 1014.2 |
| 20260505005358 | 58 | 1 | 1.0 | 2.0 | 0.04 | 0.04 | 0.04 | 85 | 1014.4 |
| 20260505004459 | 58 | 1 | 0.0 | 2.0 | 0.01 | 0.01 | 0.01 | 83 | 1014.7 |
| 20260505002658 | 60 | 0 | 0.0 | 0.0 | 0.00 | 0.00 | 0.00 | 78 | 1014.9 |
| 20260505000858 | 60 | 0 | 0.0 | 0.0 | 0.00 | 0.00 | 0.00 | 75 | 1014.7 |
| 20260504235958 | 60 | 0 | 0.0 | 0.0 | 0.00 | 0.00 | 0.00 | 75 | 1014.9 |
| 20260504235059 | 60 | 0 | 0.0 | 0.0 | 0.00 | 0.00 | 0.00 | 75 | 1015.0 |
| 20260504234159 | 61 | 0 | 0.0 | 0.0 | 0.00 | 0.00 | 0.00 | 73 | 1015.0 |
| 20260504233259 | 60 | 0 | 0.0 | 0.0 | 0.00 | 0.00 | 0.00 | 73 | 1015.3 |
| 20260504232359 | 60 | 1 | 0.0 | 2.0 | 0.00 | 0.00 | 0.00 | 73 | 1015.2 |
| 20260504230559 | 61 | 0 | 0.0 | 0.0 | 0.00 | 0.00 | 0.00 | 70 | 1015.6 |
| 20260504225659 | 61 | 1 | 0.0 | 2.0 | 0.00 | 0.00 | 0.00 | 69 | 1015.6 |
| 20260504224759 | 61 | 1 | 2.0 | 2.0 | 0.00 | 0.00 | 0.00 | 70 | 1015.8 |
| 20260504222959 | 61 | 357 | 0.0 | 2.0 | 0.00 | 0.00 | 0.00 | 70 | 1016.0 |
| 20260504222059 | 61 | 354 | 1.0 | 2.0 | 0.00 | 0.00 | 0.00 | 70 | 1016.0 |
| 20260504221159 | 61 | 1 | 0.0 | 2.0 | 0.00 | 0.00 | 0.00 | 71 | 1016.0 |
| 20260504214500 | 60 | 354 | 1.0 | 2.0 | 0.00 | 0.00 | 0.00 | 72 | 1016.3 |
| 20260504213600 | 60 | 2 | 1.0 | 4.0 | 0.00 | 0.00 | 0.00 | 73 | 1016.3 |
| 20260504212700 | 60 | 1 | 2.0 | 2.0 | 0.00 | 0.00 | 0.00 | 74 | 1016.2 |
| 20260504211800 | 60 | 1 | 1.0 | 2.0 | 0.00 | 0.00 | 0.00 | 74 | 1016.3 |
| 20260504210900 | 60 | 1 | 2.0 | 2.0 | 0.00 | 0.00 | 0.00 | 73 | 1016.1 |
| 20260504210000 | 61 | 352 | 0.0 | 2.0 | 0.00 | 0.00 | 0.00 | 73 | 1016.4 |
| 20260504205100 | 61 | 346 | 0.0 | 4.0 | 0.00 | 0.00 | 0.00 | 73 | 1016.4 |
| 20260504204200 | 61 | 356 | 2.0 | 4.0 | 0.00 | 0.00 | 0.00 | 73 | 1016.3 |
| 20260504203300 | 61 | 3 | 1.0 | 2.0 | 0.00 | 0.00 | 0.00 | 73 | 1016.5 |
| 20260504202400 | 62 | 60 | 1.0 | 2.0 | 0.00 | 0.00 | 0.00 | 73 | 1016.6 |
| 20260504201500 | 62 | 90 | 0.0 | 2.0 | 0.00 | 0.00 | 0.00 | 73 | 1016.7 |
| 20260504200600 | 62 | 117 | 0.0 | 2.0 | 0.00 | 0.00 | 0.00 | 73 | 1016.6 |
| 20260504195700 | 62 | 68 | 0.0 | 2.0 | 0.00 | 0.00 | 0.00 | 73 | 1016.6 |
| 20260504194800 | 62 | 0 | 0.0 | 0.0 | 0.00 | 0.00 | 0.00 | 73 | 1016.4 |
| 20260504193900 | 62 | 68 | 0.0 | 2.0 | 0.00 | 0.00 | 0.00 | 73 | 1016.2 |
| 20260504193000 | 62 | 68 | 0.0 | 2.0 | 0.00 | 0.00 | 0.00 | 73 | 1016.2 |
| 20260504192100 | 62 | 68 | 0.0 | 2.0 | 0.00 | 0.00 | 0.00 | 73 | 1016.3 |
| 20260504191200 | 63 | 0 | 0.0 | 0.0 | 0.00 | 0.00 | 0.00 | 72 | 1016.2 |
| 20260504190300 | 64 | 0 | 0.0 | 0.0 | 0.00 | 0.00 | 0.00 | 69 | 1016.0 |
| 20260504185400 | 65 | 0 | 0.0 | 0.0 | 0.00 | 0.00 | 0.00 | 67 | 1016.1 |
| 20260504184500 | 65 | 68 | 0.0 | 2.0 | 0.00 | 0.00 | 0.00 | 67 | 1015.8 |
| 20260504183600 | 66 | 68 | 0.0 | 2.0 | 0.00 | 0.00 | 0.00 | 66 | 1015.9 |
| 20260504182700 | 66 | 55 | 1.0 | 4.0 | 0.00 | 0.00 | 0.00 | 66 | 1015.8 |
| 20260504181800 | 66 | 38 | 1.0 | 4.0 | 0.00 | 0.00 | 0.00 | 66 | 1015.5 |
| 20260504180900 | 67 | 34 | 0.0 | 2.0 | 0.00 | 0.00 | 0.00 | 65 | 1016.0 |
| 20260504180000 | 67 | 83 | 1.0 | 4.0 | 0.00 | 0.00 | 0.00 | 65 | 1016.0 |
| 20260504175100 | 67 | 66 | 0.0 | 4.0 | 0.00 | 0.00 | 0.00 | 65 | 1015.6 |
| 20260504174200 | 67 | 72 | 2.0 | 4.0 | 0.00 | 0.00 | 0.00 | 65 | 1015.7 |
| 20260504173300 | 67 | 73 | 2.0 | 4.0 | 0.00 | 0.00 | 0.00 | 65 | 1015.7 |
| 20260504172400 | 68 | 68 | 2.0 | 6.0 | 0.00 | 0.00 | 0.00 | 64 | 1015.7 |
| 20260504171500 | 69 | 88 | 2.0 | 4.0 | 0.00 | 0.00 | 0.00 | 64 | 1015.6 |
| 20260504170600 | 69 | 68 | 2.0 | 4.0 | 0.00 | 0.00 | 0.00 | 63 | 1015.5 |
| 20260504160300 | 71 | 93 | 1.0 | 4.0 | 0.00 | 0.00 | 0.00 | 59 | 1015.5 |
| 20260504150900 | 73 | 149 | 1.0 | 2.0 | 0.00 | 0.00 | 0.00 | 45 | 1015.3 |
| 20260504140601 | 74 | 148 | 0.0 | 2.0 | 0.00 | 0.00 | 0.00 | 42 | 1015.7 |
| 20260504110600 | 74 | 136 | 2.0 | 4.0 | 0.00 | 0.00 | 0.00 | 35 | 1017.4 |
| 20260504100301 | 73 | 142 | 1.0 | 2.0 | 0.00 | 0.00 | 0.00 | 44 | 1017.8 |